FW3691 Weather Reports


time (UTC)temp
C
wind
direction
speed
KPH
gust
KPH
rain 1hr
cm
rain 24hr
cm
rain mn
cm
humidity
%
barometer
mb
20260906193033 40 176 1.6 8.0 0.00 0.00 0.00 35 1011.3
20260906191540 40 113 3.2 12.9 0.00 0.00 0.00 32 1011.5
20260906190038 40 173 3.2 6.4 0.00 0.00 0.00 34 1011.7
20260906184523 38 36 0.0 9.7 0.00 0.00 0.00 38 1011.9
20260906183027 38 32 3.2 8.0 0.00 0.00 0.00 39 1012.1
20260906181532 38 74 1.6 6.4 0.00 0.00 0.00 39 1012.4
20260906180019 38 58 1.6 8.0 0.00 0.00 0.00 39 1012.6
20260906174516 37 146 1.6 6.4 0.00 0.00 0.00 41 1013.0
20260906173014 37 288 1.6 6.4 0.00 0.00 0.00 41 1013.2
20260906171513 37 269 3.2 9.7 0.00 0.00 0.00 42 1013.4
20260906170013 37 194 1.6 4.8 0.00 0.00 0.00 45 1013.6
20260906164507 36 259 0.0 6.4 0.00 0.00 0.00 47 1013.8
20260906163004 35 255 0.0 8.0 0.00 0.00 0.00 48 1014.0
20260906161505 35 285 0.0 6.4 0.00 0.00 0.00 49 1013.8
20260906160058 35 342 1.6 6.4 0.00 0.00 0.00 49 1014.0
20260906154558 35 259 0.0 6.4 0.00 0.00 0.00 52 1014.0
20260906153054 33 146 0.0 4.8 0.00 0.00 0.00 56 1013.9
20260906151555 33 252 1.6 4.8 0.00 0.00 0.00 55 1013.8
20260906150049 32 254 0.0 3.2 0.00 0.00 0.00 57 1013.9
20260906144541 31 255 0.0 3.2 0.00 0.00 0.00 61 1013.7
20260906143048 31 257 0.0 4.8 0.00 0.00 0.00 63 1013.8
20260906141532 30 262 1.6 6.4 0.00 0.00 0.00 64 1013.7
20260906140041 29 186 0.0 3.2 0.00 0.00 0.00 67 1013.9
20260906134523 28 186 0.0 3.2 0.00 0.00 0.00 72 1013.6
20260906133020 26 141 0.0 0.0 0.00 0.00 0.00 77 1013.6
20260906131520 25 136 0.0 0.0 0.00 0.00 0.00 80 1013.6
20260906130036 25 142 0.0 0.0 0.00 0.00 0.00 80 1013.6
20260906124518 24 142 0.0 0.0 0.00 0.00 0.00 81 1013.4
20260906123017 23 142 0.0 0.0 0.00 0.00 0.00 82 1013.3
20260906121514 23 142 0.0 0.0 0.00 0.00 0.00 82 1013.3
20260906120013 23 142 0.0 0.0 0.00 0.00 0.00 81 1013.2
20260906114510 24 142 0.0 0.0 0.00 0.00 0.00 82 1013.0
20260906113007 24 142 0.0 0.0 0.00 0.00 0.00 81 1012.6
20260906111508 25 142 0.0 0.0 0.00 0.00 0.00 78 1012.5
20260906110010 25 142 0.0 0.0 0.00 0.00 0.00 77 1012.4
20260906104505 25 142 0.0 0.0 0.00 0.00 0.00 77 1012.4
20260906103101 25 142 0.0 0.0 0.00 0.00 0.00 77 1012.4
20260906101600 25 142 0.0 0.0 0.00 0.00 0.00 77 1012.5
20260906100058 25 142 0.0 0.0 0.00 0.00 0.00 77 1012.6
20260906094556 26 142 0.0 0.0 0.00 0.00 0.00 77 1012.4
20260906093113 26 142 0.0 0.0 0.00 0.00 0.00 76 1012.3
20260906091557 26 142 0.0 0.0 0.00 0.00 0.00 75 1012.3
20260906090051 26 142 0.0 0.0 0.00 0.00 0.00 75 1012.1
20260906084550 26 142 0.0 0.0 0.00 0.00 0.00 73 1012.1
20260906083049 26 142 0.0 0.0 0.00 0.00 0.00 71 1011.9
20260906081552 27 142 0.0 0.0 0.00 0.00 0.00 69 1011.8
20260906080048 27 142 0.0 1.6 0.00 0.00 0.00 68 1011.7
20260906074547 27 142 0.0 0.0 0.00 0.00 0.00 66 1011.8
20260906073045 26 142 0.0 0.0 0.00 0.00 0.00 70 1011.7
20260906071553 27 142 0.0 0.0 0.00 0.00 0.00 72 1011.8
20260906070042 27 142 0.0 0.0 0.00 0.00 0.00 69 1011.9
20260906064543 27 142 0.0 0.0 0.00 0.00 0.00 67 1011.9
20260906063040 27 142 0.0 0.0 0.00 0.00 0.00 66 1011.9
20260906061541 27 142 0.0 0.0 0.00 0.00 0.00 67 1011.9
20260906060038 27 142 0.0 0.0 0.00 0.00 0.00 69 1012.0
20260906054535 28 142 0.0 0.0 0.00 0.00 0.00 67 1011.9
20260906053037 28 142 0.0 0.0 0.00 0.00 0.00 64 1011.9
20260906051535 28 142 0.0 0.0 0.00 0.00 0.00 66 1011.7
20260906050049 28 142 0.0 0.0 0.00 0.00 0.00 67 1011.7
20260906044531 28 142 0.0 4.8 0.00 0.00 0.00 64 1011.8
20260906043028 28 242 0.0 0.0 0.00 0.00 0.00 63 1011.7
20260906041528 28 242 0.0 0.0 0.00 0.00 0.00 63 1011.5
20260906040028 29 242 0.0 0.0 0.00 0.00 0.00 61 1011.7
20260906034538 30 242 0.0 0.0 0.00 0.00 0.00 59 1011.7
20260906033028 30 242 0.0 0.0 0.00 0.00 0.00 58 1011.3
20260906031528 30 242 0.0 0.0 0.00 0.00 0.00 60 1011.5
20260906030024 30 242 0.0 4.8 0.00 0.00 0.00 58 1011.5
20260906024525 31 165 0.0 0.0 0.00 0.00 0.00 57 1011.3
20260906023026 31 165 0.0 0.0 0.00 0.00 0.00 54 1011.1
20260906021524 31 165 0.0 0.0 0.00 0.00 0.00 52 1010.8
20260906020027 32 165 0.0 0.0 0.00 0.00 0.00 50 1010.7
20260906014526 32 165 0.0 0.0 0.00 0.00 0.00 49 1010.7
20260906013021 32 165 0.0 0.0 0.00 0.00 0.00 49 1010.5
20260906011522 33 165 0.0 0.0 0.00 0.00 0.00 47 1010.5
20260906010022 34 165 0.0 0.0 0.00 0.00 0.00 45 1010.3
20260906004523 35 165 0.0 0.0 0.00 0.00 0.00 43 1010.3
20260906003020 36 165 0.0 0.0 0.00 0.00 0.00 41 1010.2
20260906001522 37 165 0.0 0.0 0.00 0.00 0.00 40 1010.1
20260906000019 37 165 0.0 3.2 0.00 0.00 0.00 39 1010.2
20260905234518 38 165 0.0 3.2 0.00 0.00 0.00 38 1010.1
20260905233025 38 165 1.6 4.8 0.00 0.00 0.00 37 1009.7
20260905231517 38 174 1.6 4.8 0.00 0.00 0.00 35 1009.6
20260905230016 38 163 0.0 8.0 0.00 0.00 0.00 35 1009.6
20260905224516 38 157 0.0 8.0 0.00 0.00 0.00 35 1009.7
20260905223014 38 163 0.0 6.4 0.00 0.00 0.00 36 1009.9
20260905221512 38 138 0.0 6.4 0.00 0.00 0.00 34 1010.0
20260905220011 38 66 0.0 6.4 0.00 0.00 0.00 35 1010.1
20260905214509 38 257 1.6 9.7 0.00 0.00 0.00 34 1010.2
20260905213008 38 114 1.6 6.4 0.00 0.00 0.00 35 1010.4
20260905211508 38 180 1.6 9.7 0.00 0.00 0.00 36 1010.5
20260905210005 38 137 3.2 9.7 0.00 0.00 0.00 37 1010.8
20260905204508 38 187 0.0 6.4 0.00 0.00 0.00 37 1011.0
20260905203102 38 151 0.0 11.3 0.00 0.00 0.00 36 1011.2
20260905203001 38 151 0.0 11.3 0.00 0.00 0.00 36 1011.2
20260905201605 38 228 1.6 11.3 0.00 0.00 0.00 38 1011.4
20260905200059 38 241 3.2 12.9 0.00 0.00 0.00 40 1011.9
20260905194556 38 144 1.6 9.7 0.00 0.00 0.00 39 1012.1